This is the latest recevied weather packets stored in our database for station/object KC1DMA. If no packets are shown the sender has not sent any weather packets the latest 10 day(s).
| Time | Temp. | Humidity | Pressure | Rain* | Wind** | Luminosity | Snow |
|---|---|---|---|---|---|---|---|
| 1777924894 | 20° C | 41% | 1010.8 hPa | - | - | 578 W/m² | - |
| 1777924590 | 20.56° C | 40% | 1011.2 hPa | - | - | 579 W/m² | - |
| 1777924286 | 20° C | 39% | 1010.8 hPa | - | - | 617 W/m² | - |
| 1777923983 | 20° C | 40% | 1011 hPa | - | - | 595 W/m² | - |
| 1777923679 | 20.56° C | 39% | 1011 hPa | - | - | 609 W/m² | - |
| 1777923375 | 20° C | 41% | 1011 hPa | - | - | 626 W/m² | - |
| 1777923074 | 19.44° C | 39% | 1010.9 hPa | - | - | 652 W/m² | - |
| 1777922772 | 19.44° C | 40% | 1011.2 hPa | - | - | 659 W/m² | - |
| 1777922469 | 19.44° C | 40% | 1011.2 hPa | - | - | 688 W/m² | - |
| 1777922168 | 20° C | 39% | 1011.2 hPa | - | - | 681 W/m² | - |
| 1777921863 | 20° C | 38% | 1011.2 hPa | - | - | 690 W/m² | - |
| 1777921560 | 20° C | 39% | 1011 hPa | - | - | 695 W/m² | - |
| 1777921256 | 20° C | 38% | 1011.3 hPa | - | - | 707 W/m² | - |
| 1777920953 | 20° C | 38% | 1011.2 hPa | - | - | 719 W/m² | - |
| 1777920650 | 20° C | 37% | 1011.2 hPa | - | - | 727 W/m² | - |
| 1777920345 | 20° C | 37% | 1011.2 hPa | - | - | 735 W/m² | - |
| 1777920040 | 20° C | 37% | 1011.4 hPa | - | - | 739 W/m² | - |
| 1777919738 | 21.11° C | 37% | 1011.3 hPa | - | - | 745 W/m² | - |
| 1777919436 | 20.56° C | 38% | 1011.4 hPa | - | - | 763 W/m² | - |
| 1777919132 | 20.56° C | 37% | 1011.4 hPa | - | - | 768 W/m² | - |
| 1777918830 | 20° C | 38% | 1011.6 hPa | - | - | 785 W/m² | - |
| 1777918527 | 20° C | 39% | 1011.4 hPa | - | - | 811 W/m² | - |
| 1777918225 | 20° C | 36% | 1011.7 hPa | - | - | 793 W/m² | - |
| 1777917924 | 20° C | 39% | 1011.7 hPa | - | - | 813 W/m² | - |
| 1777917622 | 20.56° C | 36% | 1012.1 hPa | - | - | 817 W/m² | - |
* Rain since midnight (hover to see other rain measurements)
** Current wind speed in m/s (hover to see current wind gust speed)